Weather History for Madisonville, KY

Change the Weather History Date:

Sunday, November 25, 2012

  Actual Average (KOWB) Record (KOWB)
Temperature  
Mean Temperature 43 °F -  
Max Temperature 59 °F 54 °F 69 °F (1958)
Min Temperature 27 °F 34 °F -7 °F (1950)
Degree Days  
Heating Degree Days 22    
Moisture  
Dew Point 28 °F    
Average Humidity 60    
Maximum Humidity 88    
Minimum Humidity 31    
Precipitation  
Precipitation 0.00 in - - ()
Sea Level Pressure  
Sea Level Pressure 30.04 in    
Wind  
Wind Speed 7 mph ()    
Max Wind Speed 21 mph    
Max Gust Speed 25 mph    
Visibility 10.0 miles    
Events      
Averages and records for this station are not official NWS values.
T = Trace of Precipitation, MM = Missing Value Source: Averaged Metar Reports

Daily Weather History Graph

Daily Weather History Graph

Search for Another Location

Airport:

Trip Planner

Search our weather history database for the weather conditions in past years. The results will help you decide how hot, cold, wet, or windy it might be!

Date:

Astronomy

Nov. 25, 2012 Rise Set
Actual Time 6:39 AM CST 4:33 PM CST
Civil Twilight 6:11 AM CST 5:01 PM CST
Nautical Twilight 5:39 AM CST 5:34 PM CST
Astronomical Twilight 5:07 AM CST 6:05 PM CST
Moon 2:48 PM CST (11/25) 3:55 AM CST (11/25)
Length of Visible Light 10h 50m
Length of Day
9h 53m
Waxing Gibbous, 93% of the Moon is Illuminated
Nov 25
Waxing Gibbous
Nov 28
Full
Dec 6
Last Quarter
Dec 13
New
Dec 19
First Quarter

Hourly Weather History & Observations

Time (CST) Temp. Windchill Dew Point Humidity Pressure Visibility Wind Dir Wind Speed Gust Speed Precip Events Conditions
12:15 AM 28.6 °F 23.5 °F 24.4 °F 84% 30.12 in 10.0 mi South 4.6 mph - N/A   Clear
12:35 AM 28.0 °F 22.8 °F 24.3 °F 86% 30.12 in 10.0 mi South 4.6 mph - N/A   Clear
12:55 AM 27.1 °F 21.8 °F 23.9 °F 88% 30.12 in 10.0 mi South 4.6 mph - N/A   Clear
1:15 AM 27.5 °F 22.2 °F 24.4 °F 88% 30.12 in 10.0 mi South 4.6 mph - N/A   Clear
1:35 AM 28.6 °F 23.5 °F 24.8 °F 86% 30.12 in 10.0 mi South 4.6 mph - N/A   Clear
1:55 AM 29.3 °F 24.3 °F 25.2 °F 85% 30.12 in 10.0 mi South 4.6 mph - N/A   Clear
2:15 AM 29.3 °F 24.3 °F 25.3 °F 85% 30.11 in 10.0 mi South 4.6 mph - N/A   Clear
2:35 AM 29.3 °F 25.6 °F 25.7 °F 86% 30.11 in 10.0 mi South 3.5 mph - N/A   Clear
2:55 AM 30.2 °F 26.7 °F 26.2 °F 85% 30.11 in 10.0 mi South 3.5 mph - N/A   Clear
3:15 AM 30.9 °F 27.5 °F 26.4 °F 83% 30.11 in 10.0 mi SSW 3.5 mph - N/A   Clear
3:35 AM 32.0 °F 27.5 °F 26.2 °F 79% 30.10 in 10.0 mi SSW 4.6 mph - N/A   Clear
3:55 AM 31.8 °F 26.2 °F 26.2 °F 80% 30.10 in 10.0 mi SSW 5.8 mph - N/A   Clear
4:15 AM 31.6 °F 26.0 °F 26.6 °F 82% 30.09 in 10.0 mi SSW 5.8 mph - N/A   Clear
4:35 AM 32.4 °F 24.6 °F 26.2 °F 78% 30.10 in 10.0 mi SW 9.2 mph - N/A   Clear
4:55 AM 33.1 °F 24.9 °F 26.1 °F 75% 30.09 in 10.0 mi SSW 10.4 mph - N/A   Clear
5:15 AM 32.9 °F 25.3 °F 26.1 °F 76% 30.09 in 10.0 mi SSW 9.2 mph - N/A   Clear
5:35 AM 33.1 °F 26.9 °F 26.1 °F 75% 30.09 in 10.0 mi SSW 6.9 mph - N/A   Clear
5:55 AM 33.1 °F 25.5 °F 26.4 °F 77% 30.08 in 10.0 mi SSW 9.2 mph - N/A   Clear
6:15 AM 33.3 °F 25.7 °F 26.6 °F 77% 30.08 in 10.0 mi SSW 9.2 mph - N/A   Clear
6:35 AM 34.0 °F 26.0 °F 26.6 °F 74% 30.08 in 10.0 mi SW 10.4 mph - N/A   Clear
6:55 AM 34.0 °F 26.6 °F 26.6 °F 74% 30.08 in 10.0 mi SSW 9.2 mph - N/A   Clear
7:15 AM 34.0 °F 26.6 °F 26.6 °F 74% 30.07 in 10.0 mi SSW 9.2 mph - N/A   Clear
7:35 AM 34.3 °F 27.0 °F 27.0 °F 74% 30.06 in 10.0 mi SSW 9.2 mph - N/A   Clear
7:55 AM 36.1 °F 29.3 °F 27.3 °F 70% 30.06 in 10.0 mi SSW 9.2 mph - N/A   Clear
8:15 AM 37.9 °F 30.5 °F 27.9 °F 67% 30.06 in 10.0 mi SSW 11.5 mph - N/A   Clear
8:35 AM 39.7 °F 32.7 °F 27.9 °F 63% 30.06 in 10.0 mi SSW 11.5 mph - N/A   Clear
8:55 AM 41.9 °F 35.0 °F 27.5 °F 57% 30.06 in 10.0 mi SW 12.7 mph - N/A   Clear
9:15 AM 44.2 °F 37.3 °F 27.7 °F 52% 30.06 in 10.0 mi SW 15.0 mph - N/A   Clear
9:35 AM 46.6 °F - 27.9 °F 48% 30.06 in 10.0 mi WSW 18.4 mph 21.9 mph N/A   Clear
9:55 AM 48.2 °F - 28.0 °F 46% 30.05 in 10.0 mi SW 20.7 mph - N/A   Clear
10:15 AM 49.5 °F - 28.4 °F 44% 30.04 in 10.0 mi SW 16.1 mph - N/A   Clear
10:35 AM 50.9 °F - 28.9 °F 43% 30.04 in 10.0 mi SW 16.1 mph - N/A   Clear
10:55 AM 52.2 °F - 28.6 °F 40% 30.03 in 10.0 mi WSW 17.3 mph 23.0 mph N/A   Clear
11:15 AM 53.2 °F - 28.6 °F 39% 30.02 in 10.0 mi WSW 16.1 mph 25.3 mph N/A   Clear
11:35 AM 55.4 °F - 28.9 °F 36% 30.01 in 10.0 mi WSW 13.8 mph 18.4 mph N/A   Clear
11:55 AM 56.8 °F - 28.0 °F 33% 30.00 in 10.0 mi WSW 17.3 mph 20.7 mph N/A   Clear
12:15 PM 57.4 °F - 27.3 °F 32% 29.98 in 10.0 mi WSW 13.8 mph - N/A   Clear
12:35 PM 57.6 °F - 27.7 °F 32% 29.98 in 10.0 mi West 17.3 mph 25.3 mph N/A   Clear
12:55 PM 58.5 °F - 28.4 °F 32% 29.97 in 10.0 mi WSW 15.0 mph - N/A   Clear
1:15 PM 59.0 °F - 29.1 °F 32% 29.96 in 10.0 mi West 13.8 mph - N/A   Clear
1:35 PM 59.2 °F - 29.3 °F 32% 29.96 in 10.0 mi WSW 10.4 mph - N/A   Clear
1:55 PM 59.2 °F - 29.5 °F 32% 29.96 in 10.0 mi WSW 13.8 mph - N/A   Clear
2:15 PM 59.7 °F - 29.7 °F 32% 29.95 in 10.0 mi SW 13.8 mph - N/A   Clear
2:35 PM 59.9 °F - 29.3 °F 31% 29.95 in 10.0 mi WSW 12.7 mph 16.1 mph N/A   Clear
2:55 PM 59.5 °F - 29.5 °F 32% 29.95 in 10.0 mi WSW 11.5 mph - N/A   Clear
3:15 PM 59.2 °F - 29.8 °F 33% 29.96 in 10.0 mi SW 10.4 mph - N/A   Clear
3:35 PM 58.1 °F - 29.7 °F 34% 29.96 in 10.0 mi WSW 11.5 mph - N/A   Clear
3:55 PM 57.0 °F - 29.8 °F 36% 29.96 in 10.0 mi WSW 10.4 mph - N/A   Clear
4:15 PM 55.0 °F - 29.8 °F 38% 29.97 in 10.0 mi WSW 10.4 mph - N/A   Clear
4:35 PM 51.8 °F - 30.2 °F 44% 29.97 in 10.0 mi SW 6.9 mph - N/A   Clear
4:55 PM 50.5 °F - 29.8 °F 45% 29.97 in 10.0 mi SW 4.6 mph - N/A   Clear
5:15 PM 51.1 °F - 29.1 °F 43% 29.98 in 10.0 mi SW 4.6 mph - N/A   Clear
5:35 PM 49.6 °F - 29.3 °F 46% 29.99 in 10.0 mi WSW 5.8 mph - N/A   Clear
5:55 PM 49.5 °F - 29.1 °F 46% 29.99 in 10.0 mi SSW 3.5 mph - N/A   Clear
6:15 PM 48.4 °F - 29.3 °F 48% 30.00 in 10.0 mi SW 4.6 mph - N/A   Clear
6:35 PM 47.3 °F - 29.3 °F 50% 30.00 in 10.0 mi SSW 3.5 mph - N/A   Clear
6:55 PM 46.8 °F - 29.1 °F 50% 30.01 in 10.0 mi Calm Calm - N/A   Clear
7:15 PM 44.1 °F - 29.5 °F 57% 30.01 in 10.0 mi Calm Calm - N/A   Clear
7:35 PM 43.9 °F - 29.3 °F 57% 30.01 in 10.0 mi Calm Calm - N/A   Clear
7:55 PM 42.3 °F - 29.5 °F 61% 30.02 in 10.0 mi Calm Calm - N/A   Clear
8:15 PM 40.3 °F - 29.8 °F 66% 30.02 in 10.0 mi Calm Calm - N/A   Clear
8:35 PM 39.6 °F - 29.8 °F 68% 30.02 in 10.0 mi Calm Calm - N/A   Clear
8:55 PM 37.4 °F - 30.2 °F 75% 30.03 in 10.0 mi Calm Calm - N/A   Clear
9:15 PM 37.2 °F - 30.0 °F 75% 30.03 in 10.0 mi Calm Calm - N/A   Clear
9:35 PM 37.6 °F - 29.8 °F 74% 30.04 in 10.0 mi Calm Calm - N/A   Clear
9:55 PM 36.5 °F - 29.3 °F 75% 30.04 in 10.0 mi Calm Calm - N/A   Clear
10:15 PM 37.4 °F - 29.3 °F 73% 30.05 in 10.0 mi Calm Calm - N/A   Clear
10:35 PM 37.4 °F - 29.1 °F 72% 30.05 in 10.0 mi Calm Calm - N/A   Clear
10:55 PM 35.4 °F - 29.3 °F 78% 30.06 in 10.0 mi Calm Calm - N/A   Clear
11:15 PM 36.5 °F - 29.3 °F 75% 30.06 in 10.0 mi Calm Calm - N/A   Clear
11:35 PM 36.3 °F - 29.7 °F 77% 30.07 in 10.0 mi Calm Calm - N/A   Mostly Cloudy
11:55 PM 35.1 °F 32.2 °F 30.0 °F 82% 30.08 in 10.0 mi South 3.5 mph - N/A   Overcast